Weather History for Window Rock, AZ

Change the Weather History Date:

Saturday, June 15, 2013

  Actual Average Record
Temperature  
Mean Temperature 68 °F -  
Max Temperature 82 °F 81 °F 91 °F (1940)
Min Temperature 54 °F 47 °F 28 °F (2001)
Cooling Degree Days 3    
Growing Degree Days 18 (Base 50)    
Moisture  
Dew Point 33 °F    
Average Humidity 34    
Maximum Humidity 77    
Minimum Humidity 11    
Precipitation  
Precipitation 0.26 in - - ()
Sea Level Pressure  
Sea Level Pressure 29.88 in    
Wind  
Wind Speed 6 mph (SSW)    
Max Wind Speed 24 mph    
Max Gust Speed 34 mph    
Visibility 9 miles    
Events Rain    
Averages and records for this station are not official NWS values.
T = Trace of Precipitation, MM = Missing Value Source: NWS Daily Summary

Daily Weather History Graph

Daily Weather History Graph

Search for Another Location

Airport:

Trip Planner

Search our weather history database for the weather conditions in past years. The results will help you decide how hot, cold, wet, or windy it might be!

Date:

Astronomy

Jun. 15, 2013 Rise Set
Actual Time 5:59 AM MDT 8:33 PM MDT
Civil Twilight 5:29 AM MDT 9:03 PM MDT
Nautical Twilight 4:52 AM MDT 9:41 PM MDT
Astronomical Twilight 4:11 AM MDT 10:22 PM MDT
Moon 12:25 PM MDT (6/15) 12:21 AM MDT (6/15)
Length of Visible Light 15h 33m
Length of Day
14h 33m
Waxing Crescent, 40% of the Moon is Illuminated
Jun 15
Waxing Crescent
Jun 16
First Quarter
Jun 23
Full
Jun 29
Last Quarter
Jul 8
New

Hourly Weather History & Observations

Time (MDT) Temp. Dew Point Humidity Pressure Visibility Wind Dir Wind Speed Gust Speed Precip Events Conditions
12:53 AM 62.1 °F 25.0 °F 24% 29.76 in 10.0 mi Calm Calm - N/A   Clear
1:53 AM 61.0 °F 27.0 °F 27% 29.75 in 10.0 mi South 4.6 mph - N/A   Clear
2:53 AM 57.9 °F 28.0 °F 32% 29.77 in 10.0 mi South 3.5 mph - N/A   Clear
3:53 AM 59.0 °F 28.0 °F 31% 29.77 in 10.0 mi Calm Calm - N/A   Clear
4:53 AM 61.0 °F 28.0 °F 29% 29.77 in 10.0 mi Calm Calm - N/A   Clear
5:53 AM 54.0 °F 28.0 °F 37% 29.82 in 10.0 mi Calm Calm - N/A   Clear
7:53 AM 64.9 °F 28.9 °F 26% 29.83 in 10.0 mi Calm Calm - N/A   Clear
8:53 AM 71.1 °F 28.9 °F 21% 29.83 in 10.0 mi SSW 6.9 mph - N/A   Clear
9:53 AM 77.0 °F 28.9 °F 17% 29.83 in 10.0 mi West 6.9 mph 16.1 mph N/A   Clear
10:53 AM 80.1 °F 27.0 °F 14% 29.83 in 10.0 mi NW 8.1 mph - N/A   Clear
11:53 AM 82.0 °F 24.1 °F 12% 29.85 in 10.0 mi SW 16.1 mph 23.0 mph N/A   Clear
12:53 PM 82.9 °F 24.1 °F 12% 29.82 in 10.0 mi WSW 16.1 mph 24.2 mph N/A   Clear
1:53 PM 82.0 °F 23.0 °F 11% 29.81 in 10.0 mi WSW 11.5 mph 20.7 mph N/A   Mostly Cloudy
2:53 PM 82.0 °F 26.1 °F 13% 29.82 in 10.0 mi SW 19.6 mph 29.9 mph N/A   Scattered Clouds
3:53 PM 82.9 °F 21.9 °F 11% 29.78 in 10.0 mi WSW 20.7 mph 29.9 mph N/A   Clear
4:53 PM 77.0 °F 28.0 °F 17% 29.82 in 9.0 mi West 24.2 mph 34.5 mph N/A   Mostly Cloudy
5:53 PM 73.9 °F 30.9 °F 21% 29.84 in 10.0 mi West 9.2 mph - 0.00 in   Mostly Cloudy
6:53 PM 70.0 °F 34.0 °F 27% 29.88 in 10.0 mi WNW 11.5 mph 31.1 mph 0.00 in   Overcast
7:53 PM 66.0 °F 45.0 °F 47% 29.86 in 10.0 mi SSW 8.1 mph - 0.02 in Rain Light Rain
8:36 PM 66.2 °F 39.2 °F 37% 30.21 in 10.0 mi SE 9.2 mph 19.6 mph 0.00 in   Mostly Cloudy
8:53 PM 66.9 °F 39.0 °F 36% 29.86 in 10.0 mi Variable 6.9 mph 20.7 mph 0.00 in   Mostly Cloudy
9:53 PM 57.9 °F 48.9 °F 72% 29.93 in 8.0 mi ESE 8.1 mph - 0.03 in   Overcast
10:07 PM 55.4 °F 48.2 °F 77% 30.30 in 2.5 mi SE 9.2 mph - 0.16 in Rain Heavy Rain
10:15 PM 57.2 °F 48.2 °F 72% 30.30 in 6.0 mi SE 9.2 mph - 0.20 in Rain Light Rain
10:53 PM 57.0 °F 48.0 °F 72% 29.97 in 10.0 mi ESE 11.5 mph - 0.21 in   Mostly Cloudy
11:53 PM 55.9 °F 48.9 °F 77% 29.96 in 10.0 mi East 3.5 mph - N/A   Overcast